FW4518 Weather Reports


Display with metric or nautical units.
time (UTC)temp
F
wind
direction
speed
MPH
gust
MPH
rain 1hr
in
rain 24hr
in
rain mn
in
humidity
%
barometer
mb
20260831171713 67 0.0 1.0 0.00 0.00 0.00 46 1014.8
20260831170713 65 266 1.0 3.0 0.00 0.00 0.00 47 1014.9
20260831165713 64 217 2.0 3.0 0.00 0.00 0.00 48 1015.0
20260831164713 62 97 2.0 3.0 0.00 0.00 0.00 48 1015.1
20260831163713 61 197 1.0 3.0 0.00 0.00 0.00 49 1015.2
20260831162713 59 206 2.0 4.0 0.00 0.00 0.00 50 1015.3
20260831161713 57 178 1.0 4.0 0.00 0.00 0.00 53 1015.5
20260831160713 56 177 2.0 4.0 0.00 0.00 0.00 53 1015.6
20260831155713 56 185 3.0 5.0 0.00 0.00 0.00 54 1015.8
20260831154713 55 157 2.0 5.0 0.00 0.00 0.00 53 1015.7
20260831153713 54 150 3.0 6.0 0.00 0.00 0.00 55 1015.8
20260831152713 53 194 3.0 5.0 0.00 0.00 0.00 58 1015.7
20260831151713 51 146 3.0 6.0 0.00 0.00 0.00 61 1015.8
20260831150713 50 152 3.0 6.0 0.00 0.00 0.00 63 1015.8
20260831145713 49 126 4.0 6.0 0.00 0.00 0.00 63 1015.8
20260831144713 45 186 0.0 2.0 0.00 0.00 0.00 70 1015.9
20260831143713 44 0.0 0.0 0.00 0.00 0.00 70 1015.8
20260831142853 43 0.0 0.0 0.00 0.00 0.00 72 1015.8
20260831141713 42 0.0 0.0 0.00 0.00 0.00 73 1015.8
20260831140734 42 0.0 0.0 0.00 0.00 0.00 73 1015.8
20260831135713 41 168 0.0 3.0 0.00 0.00 0.00 76 1015.9
20260831134713 38 0.0 0.0 0.00 0.00 0.00 81 1015.9
20260831133733 38 0.0 0.0 0.00 0.00 0.00 82 1015.9
20260831132713 38 0.0 0.0 0.00 0.00 0.00 84 1015.9
20260831131713 38 0.0 0.0 0.00 0.00 0.00 83 1016.0
20260831130713 38 0.0 0.0 0.00 0.00 0.00 85 1015.9
20260831125713 38 0.0 0.0 0.00 0.00 0.00 84 1016.0
20260831124733 39 0.0 0.0 0.00 0.00 0.00 81 1016.0
20260831123713 39 0.0 0.0 0.00 0.00 0.00 82 1016.1
20260831122713 39 0.0 0.0 0.00 0.00 0.00 83 1016.1
20260831121713 40 0.0 0.0 0.00 0.00 0.00 79 1016.1
20260831120713 40 0.0 0.0 0.00 0.00 0.00 79 1016.2
20260831115754 41 0.0 0.0 0.00 0.00 0.00 78 1016.2
20260831114713 43 0.0 0.0 0.00 0.00 0.00 73 1016.0
20260831113713 44 0.0 0.0 0.00 0.00 0.00 72 1016.1
20260831112713 45 0.0 0.0 0.00 0.00 0.00 70 1016.0
20260831111713 45 216 1.0 4.0 0.00 0.00 0.00 71 1016.1
20260831110733 44 201 1.0 3.0 0.00 0.00 0.00 73 1016.3
20260831105713 44 0.0 0.0 0.00 0.00 0.00 74 1016.3
20260831104733 46 202 1.0 3.0 0.00 0.00 0.00 71 1016.2
20260831103733 46 189 0.0 2.0 0.00 0.00 0.00 72 1016.2
20260831102713 43 0.0 1.0 0.00 0.00 0.00 77 1016.2
20260831101733 43 0.0 0.0 0.00 0.00 0.00 74 1016.2
20260831100713 43 0.0 0.0 0.00 0.00 0.00 73 1016.2
20260831095713 44 0.0 0.0 0.00 0.00 0.00 74 1016.2
20260831094713 44 0.0 0.0 0.00 0.00 0.00 72 1016.2
20260831093713 45 0.0 0.0 0.00 0.00 0.00 68 1016.3
20260831092713 46 0.0 0.0 0.00 0.00 0.00 69 1016.4
20260831091713 45 0.0 0.0 0.00 0.00 0.00 70 1016.5
20260831090713 46 0.0 0.0 0.00 0.00 0.00 72 1016.6
20260831085713 45 0.0 0.0 0.00 0.00 0.00 71 1016.5
20260831084733 46 0.0 0.0 0.00 0.00 0.00 70 1016.5
20260831083733 47 0.0 0.0 0.00 0.00 0.00 68 1016.6
20260831082713 48 0.0 0.0 0.00 0.00 0.00 67 1016.5
20260831081734 48 0.0 0.0 0.00 0.00 0.00 67 1016.6
20260831080713 48 0.0 0.0 0.00 0.00 0.00 71 1016.6
20260831075713 49 0.0 0.0 0.00 0.00 0.00 71 1016.6
20260831074713 49 0.0 0.0 0.00 0.00 0.00 69 1016.6
20260831073713 50 0.0 0.0 0.00 0.00 0.00 67 1016.6
20260831072713 50 0.0 0.0 0.00 0.00 0.00 65 1016.5
20260831071715 51 0.0 0.0 0.00 0.00 0.00 64 1016.6
20260831070713 52 0.0 0.0 0.00 0.00 0.00 64 1016.7
20260831065715 52 0.0 0.0 0.00 0.00 0.00 63 1016.7
20260831064713 52 0.0 0.0 0.00 0.00 0.00 63 1016.6
20260831063713 53 0.0 0.0 0.00 0.00 0.00 62 1016.6
20260831062714 54 0.0 0.0 0.00 0.00 0.00 60 1016.6
20260831061713 55 0.0 0.0 0.00 0.00 0.00 58 1016.6
20260831060713 56 0.0 0.0 0.00 0.00 0.00 60 1016.5
20260831055714 57 0.0 0.0 0.00 0.00 0.00 57 1016.5
20260831054714 60 0.0 0.0 0.00 0.00 0.00 51 1016.5
20260831053713 62 0.0 0.0 0.00 0.00 0.00 49 1016.5
20260831052713 63 10 3.0 6.0 0.00 0.00 0.00 47 1016.5
20260831051714 64 15 3.0 7.0 0.00 0.00 0.00 47 1016.4
20260831050714 62 15 2.0 5.0 0.00 0.00 0.00 49 1016.5
20260831045713 59 357 0.0 2.0 0.00 0.00 0.00 51 1016.5
20260831044714 61 0.0 0.0 0.00 0.00 0.00 50 1016.5
20260831043714 64 17 1.0 3.0 0.00 0.00 0.00 45 1016.4
20260831042717 60 13 1.0 3.0 0.00 0.00 0.00 49 1016.4
20260831041713 61 0.0 0.0 0.00 0.00 0.00 48 1016.4
20260831040733 62 0.0 0.0 0.00 0.00 0.00 47 1016.3
20260831035714 64 0.0 0.0 0.00 0.00 0.00 45 1016.2
20260831034713 65 85 0.0 4.0 0.00 0.00 0.00 44 1016.1
20260831033713 67 0.0 0.0 0.00 0.00 0.00 42 1016.1
20260831032733 68 13 1.0 3.0 0.00 0.00 0.00 41 1015.9
20260831031714 68 14 2.0 5.0 0.00 0.00 0.00 41 1015.9
20260831030734 69 17 2.0 6.0 0.00 0.00 0.00 41 1015.8
20260831025713 70 14 3.0 7.0 0.00 0.00 0.00 40 1015.7
20260831024734 70 18 4.0 9.0 0.00 0.00 0.00 39 1015.6
20260831023713 71 2 3.0 7.0 0.00 0.00 0.00 37 1015.6
20260831022734 72 36 3.0 7.0 0.00 0.00 0.00 35 1015.6
20260831021754 73 5 5.0 10.0 0.00 0.00 0.00 35 1015.5
20260831020714 74 357 4.0 8.0 0.00 0.00 0.00 33 1015.5
20260831015714 75 18 4.0 8.0 0.00 0.00 0.00 33 1015.5
20260831014714 76 360 4.0 6.0 0.00 0.00 0.00 32 1015.4
20260831013714 77 20 3.0 7.0 0.00 0.00 0.00 30 1015.5
20260831012714 77 13 4.0 8.0 0.00 0.00 0.00 30 1015.5
20260831011714 77 45 6.0 9.0 0.00 0.00 0.00 29 1015.5
20260831005754 77 5 3.0 6.0 0.00 0.00 0.00 28 1015.6
20260831004715 78 2 5.0 8.0 0.00 0.00 0.00 27 1015.6
20260831003714 78 323 5.0 9.0 0.00 0.00 0.00 27 1015.6
20260831002734 78 3 5.0 12.0 0.00 0.00 0.00 27 1015.7
20260831001734 79 11 5.0 8.0 0.00 0.00 0.00 26 1015.8
20260831000714 78 335 6.0 10.0 0.00 0.00 0.00 26 1015.8
20260830235714 79 32 1.0 4.0 0.00 0.00 0.00 26 1015.9
20260830234714 79 359 2.0 5.0 0.00 0.00 0.00 26 1016.0
20260830233714 77 182 2.0 5.0 0.00 0.00 0.00 27 1016.2
20260830232734 78 358 4.0 7.0 0.00 0.00 0.00 26 1016.3
20260830231714 77 359 2.0 5.0 0.00 0.00 0.00 26 1016.4
20260830230714 78 348 1.0 4.0 0.00 0.00 0.00 26 1016.5
20260830225714 77 264 1.0 5.0 0.00 0.00 0.00 28 1016.7
20260830224734 76 175 3.0 6.0 0.00 0.00 0.00 28 1016.8
20260830223714 78 223 2.0 5.0 0.00 0.00 0.00 28 1016.9
20260830222714 78 245 2.0 5.0 0.00 0.00 0.00 28 1017.1
20260830221715 76 205 2.0 5.0 0.00 0.00 0.00 28 1017.2
20260830220714 75 160 4.0 8.0 0.00 0.00 0.00 28 1017.4
20260830215714 75 170 4.0 8.0 0.00 0.00 0.00 29 1017.5
20260830214714 74 152 5.0 7.0 0.00 0.00 0.00 31 1017.7
20260830213714 74 169 4.0 8.0 0.00 0.00 0.00 32 1018.0
20260830212715 75 332 1.0 4.0 0.00 0.00 0.00 30 1018.1
20260830211715 73 304 1.0 5.0 0.00 0.00 0.00 34 1018.3
20260830210714 73 187 3.0 7.0 0.00 0.00 0.00 35 1018.4
20260830205715 74 234 2.0 6.0 0.00 0.00 0.00 35 1018.5
20260830204714 72 233 2.0 5.0 0.00 0.00 0.00 38 1018.6
20260830203716 72 223 2.0 5.0 0.00 0.00 0.00 37 1018.8
20260830202715 72 218 4.0 8.0 0.00 0.00 0.00 40 1018.8
20260830201718 70 205 2.0 7.0 0.00 0.00 0.00 41 1019.0
20260830200714 70 228 2.0 6.0 0.00 0.00 0.00 44 1019.1
20260830195735 69 212 4.0 8.0 0.00 0.00 0.00 43 1019.2
20260830194715 68 146 1.0 5.0 0.00 0.00 0.00 47 1019.4
20260830193715 69 160 3.0 8.0 0.00 0.00 0.00 45 1019.5
20260830192714 68 247 2.0 5.0 0.00 0.00 0.00 47 1019.7
20260830191714 66 167 4.0 9.0 0.00 0.00 0.00 50 1019.8
20260830190714 66 178 4.0 8.0 0.00 0.00 0.00 53 1019.9
20260830185715 66 162 1.0 5.0 0.00 0.00 0.00 53 1020.0
20260830184714 65 244 1.0 4.0 0.00 0.00 0.00 54 1020.1
20260830183735 64 120 5.0 10.0 0.00 0.00 0.00 55 1020.1
20260830182714 63 142 5.0 9.0 0.00 0.00 0.00 56 1020.2
20260830181715 64 163 4.0 11.0 0.00 0.00 0.00 59 1020.2
20260830180755 62 159 4.0 9.0 0.00 0.00 0.00 59 1020.3
20260830175715 61 100 2.0 6.0 0.00 0.00 0.00 62 1020.5
20260830174715 61 164 5.0 8.0 0.00 0.00 0.00 61 1020.6
20260830173715 61 153 2.0 6.0 0.00 0.00 0.00 62 1020.6
20260830172715 60 147 4.0 8.0 0.00 0.00 0.00 63 1020.6